CAPE
0 0 0 0 0 0 0 0 0 0 0 0 0 0 0 0 0 0 0 0 0 0 0 0 0 0 0 0 0 0 0 0 0 0 0 0 7 7
0 0 0 0 0 0 0 0 0 0 0 0 0 0 0 0 0 0 0 0 0 0 0 0 0 0 0 0 0 0 0 0 0 0 4 6 11 11
0 0 0 0 0 0 0 0 0 0 0 0 0 0 0 0 0 0 0 0 0 0 0 0 0 0 0 0 0 1 1 0 0 0 0 0 1 0
0 0 0 0 0 0 0 0 0 0 0 0 0 0 0 0 0 0 0 0 0 0 0 0 0 0 0 0 0 0 2 0 0 0 0 0 0 0
0 0 0 0 0 0 0 0 0 0 0 0 0 0 0 0 0 0 0 0 0 0 0 0 0 0 0 0 0 0 2 0 0 0 0 0 0 0
0 0 0 0 0 0 0 0 0 0 0 0 0 0 0 0 0 0 0 0 0 0 0 0 0 0 0 0 0 0 4 0 0 0 0 0 0 0
0 0 0 0 0 0 0 0 0 0 0 0 0 0 0 0 0 0 0 0 0 0 0 0 0 0 0 0 0 0 0 0 0 0 0 0 0 0
0 0 0 0 0 0 0 0 0 0 0 13 21 23 21 21 3 0 0 0 0 0 0 0 0 0 0 0 0 0 0 0 0 0 0 0 0 0
0 0 0 0 0 0 0 0 0 0 0 1 5 3 5 21 22 7 1 0 0 0 0 0 0 0 0 0 0 0 0 0 0 0 0 0 0 0
0 0 0 0 0 0 0 0 0 0 0 0 0 0 0 1 7 33 28 18 0 0 0 0 0 0 0 0 0 0 0 0 0 0 0 0 0 0
0 0 0 0 0 10 0 0 0 0 0 23 46 63 65 55 36 16 1 20 22 15 0 0 0 0 0 0 0 0 0 0 0 0 0 0 0 0
0 0 0 0 14 9 0 0 0 0 0 0 0 0 0 0 36 1 0 9 0 7 2 0 4 0 0 0 0 0 0 0 0 0 0 0 2 0
0 0 0 0 10 22 27 0 0 5 0 0 0 0 0 0 0 0 0 0 1 1 1 23 0 0 0 0 0 0 0 0 0 0 0 11 0 0
0 0 0 5 33 38 21 31 50 42 0 0 0 0 0 0 0 0 0 0 0 2 1 2 9 0 0 0 0 0 0 0 0 0 0 0 5 2
0 1 30 32 30 12 28 48 49 0 0 0 0 0 0 0 0 0 0 0 0 0 0 0 4 5 0 0 0 0 0 0 0 0 0 0 0 0
0 0 1 46 42 10 1 0 0 0 0 0 0 0 0 0 0 0 1 0 0 0 0 0 0 0 0 0 0 0 0 0 0 0 0 0 0 0
14 0 0 0 0 0 0 0 0 0 0 0 0 0 0 0 0 0 0 4 2 0 0 0 0 0 0 0 0 0 0 0 0 0 0 0 0 0
3 0 0 0 0 0 0 0 0 0 0 0 0 0 0 0 0 0 0 4 7 1 0 0 0 0 0 0 2 0 0 0 0 0 0 0 0 0
0 0 0 0 0 0 0 0 0 0 0 0 0 0 0 0 5 8 4 5 2 0 0 0 0 0 0 0 0 0 0 0 0 0 0 0 0 0
0 0 0 0 0 0 0 0 0 0 0 0 0 0 0 0 0 0 0 0 2 5 6 0 0 0 0 0 0 0 0 0 0 0 0 0 0 0
0 0 0 0 0 0 0 0 0 0 0 0 0 0 0 0 0 0 0 7 10 1 1 0 0 1 0 0 0 0 0 0 0 0 0 0 0 0
0 0 0 0 0 0 0 0 0 0 0 0 0 0 0 0 0 0 0 0 0 0 0 0 0 0 0 0 0 0 0 0 0 5 0 0 0 0
1 0 0 2 0 0 0 0 0 0 0 0 0 0 0 0 0 0 0 0 0 0 0 0 0 0 0 0 0 0 0 0 0 0 0 0 0 21
CIN
0 0 0 0 0 0 0 0 0 0 0 0 0 0 0 0 0 0 0 0 0 0 0 0 0 0 0 0 0 0 0 0 0 0 0 0 0 0
0 0 0 0 0 0 0 0 0 0 0 0 0 0 0 0 0 0 0 0 0 0 0 0 0 0 0 0 0 0 0 0 0 0 0 0 0 0
0 0 0 0 0 0 0 0 0 0 0 0 0 0 0 0 0 0 0 0 0 0 0 0 0 0 0 0 0 0 0 0 0 0 0 0 -1 0
0 0 0 0 0 0 0 0 0 0 0 0 0 0 0 0 0 0 0 0 0 0 0 0 0 0 0 0 0 0 0 0 0 0 0 0 0 0
0 0 0 0 0 0 0 0 0 0 0 0 0 0 0 0 0 0 0 0 0 0 0 0 0 0 0 0 0 0 0 0 0 0 0 0 0 0
0 0 0 0 0 0 0 0 0 0 0 0 0 0 0 0 0 0 0 0 0 0 0 0 0 0 0 0 0 0 -2 0 0 0 0 0 0 0
0 0 0 0 0 0 0 0 0 0 0 0 0 0 0 0 0 0 0 0 0 0 0 0 0 0 0 0 0 0 0 0 0 0 0 0 0 0
0 0 0 0 0 0 0 0 0 0 0 -4 -1 -1 -1 -2 -13 0 0 0 0 0 0 0 0 0 0 0 0 0 0 0 0 0 0 0 0 0
0 0 0 0 0 0 0 0 0 0 0 -3 -4 -3 -3 -2 -1 -1 -1 0 0 0 0 0 0 0 0 0 0 0 0 0 0 0 0 0 0 0
0 0 0 0 0 0 0 0 0 0 0 0 0 0 0 -11 -13 -1 -1 0 -2 0 0 0 0 0 0 0 0 0 0 0 0 0 0 0 0 0
0 0 0 0 0 -5 0 0 0 0 0 -7 -5 -2 -1 -1 -2 -6 0 0 0 -1 -1 0 0 0 0 0 0 0 0 0 0 0 0 0 0 0
0 0 0 0 -7 0 0 0 0 0 0 0 0 0 0 0 -5 -7 0 -1 0 0 -10 -1 -6 0 -1 0 0 0 0 0 0 0 0 0 0 0
0 0 0 0 -5 -2 -1 0 0 -1 0 0 0 0 0 0 0 0 0 0 0 -1 -2 -1 0 -1 0 0 0 0 0 0 0 0 0 0 0 0
0 0 0 -9 -1 -1 -2 -1 0 -1 0 0 0 0 0 0 0 0 0 0 0 -1 -1 -1 0 0 0 0 0 0 0 0 0 0 0 0 0 0
0 -1 -1 0 0 -5 -10 -2 -1 0 0 0 0 0 0 0 0 0 0 0 0 0 0 0 -1 -2 0 0 0 0 0 0 0 0 0 0 0 0
0 0 -1 0 0 -5 -3 0 0 0 0 0 0 0 0 0 0 0 0 0 0 0 0 -1 0 0 0 0 0 0 0 0 0 0 0 0 0 0
-2 -5 0 0 0 0 0 0 0 0 0 0 0 0 0 0 0 0 0 -2 0 0 0 0 0 0 0 0 0 0 0 0 0 0 0 0 0 0
-5 0 0 0 0 0 0 0 0 0 0 0 0 0 0 0 0 0 0 -1 0 -2 0 0 0 0 0 0 0 0 0 0 0 0 0 0 0 0
0 0 0 0 0 0 0 0 0 0 0 0 0 0 0 0 -2 -4 -7 -10 -9 0 -1 -1 -1 0 0 0 0 0 0 0 0 0 0 0 -3 -1
0 0 0 0 0 0 0 0 0 0 0 0 0 0 0 0 0 0 0 0 -6 -5 -1 0 -2 0 0 0 0 0 0 0 0 0 0 0 0 0
0 0 0 -1 -1 -1 0 0 0 0 0 0 0 0 0 0 0 0 0 0 -1 -2 -1 0 0 -1 0 0 0 0 0 0 0 0 0 0 0 0
0 0 0 0 0 0 0 0 0 0 0 0 0 0 0 0 0 0 0 0 0 0 -1 0 0 0 0 0 -1 0 0 0 0 0 0 0 0 0
-1 0 -3 -4 -10 0 0 0 0 0 0 0 0 0 0 0 0 0 0 0 0 0 0 0 0 0 0 0 0 0 0 0 0 0 0 0 0 -1
Wind_Speed
4 4 3 3 3 3 2 3 3 3 4 4 3 2 2 3 5 5 6 10 13 14 13 13 10 10 11 10 10 8 6 5 6 7 7 7 5 4
3 4 3 3 4 3 3 3 3 4 4 3 3 3 4 6 6 6 6 9 12 14 14 12 12 10 11 11 10 9 7 6 6 6 6 5 4 2
3 4 5 4 4 4 3 3 4 4 5 6 3 2 4 6 7 6 5 6 5 12 13 15 14 12 11 11 11 10 9 9 7 6 5 4 3 2
5 5 6 3 6 4 3 5 4 4 4 9 7 5 5 5 6 6 6 5 5 9 15 15 14 13 14 12 12 12 11 10 8 6 5 5 4 4
5 5 6 6 5 4 4 5 4 5 4 4 6 3 4 3 4 5 5 5 5 11 16 15 15 15 14 15 14 13 11 10 9 7 5 5 4 5
5 5 6 5 6 6 6 6 6 4 4 4 4 4 3 4 3 4 7 3 4 6 9 10 13 13 15 15 13 12 11 11 12 11 9 7 7 6
6 5 5 7 12 10 5 5 5 4 4 6 6 6 4 4 7 4 6 6 6 4 5 6 4 4 5 10 9 12 12 13 14 12 11 9 7 6
6 6 5 9 9 14 15 14 10 6 8 8 8 8 10 6 5 7 7 6 7 2 3 5 3 4 5 4 12 14 14 14 14 13 11 9 8 7
6 6 6 6 9 6 12 17 14 15 14 9 9 7 9 9 6 9 10 9 9 6 3 10 2 7 5 6 14 15 15 14 14 14 12 10 9 9
7 7 7 7 7 9 8 7 8 7 8 6 6 7 7 6 6 9 12 11 11 8 4 12 4 7 4 5 14 15 14 15 15 14 13 12 11 10
6 7 6 7 12 14 8 7 7 8 9 15 17 18 18 17 14 5 7 8 10 8 3 7 7 5 3 4 5 14 15 17 15 14 13 12 12 12
6 7 14 11 15 16 7 6 6 8 6 7 6 9 11 11 18 8 6 7 7 8 5 4 6 3 5 3 2 4 3 13 14 13 13 13 14 4
5 6 5 15 16 16 16 5 7 9 10 5 5 6 6 6 6 6 8 8 9 10 9 8 5 5 4 5 3 2 3 2 3 5 12 14 14 9
8 5 5 13 16 19 16 17 19 17 4 5 6 6 6 7 7 7 8 9 7 11 10 8 7 5 2 2 4 2 2 2 3 3 3 5 10 9
6 12 22 21 20 14 15 18 18 4 5 6 7 7 6 7 8 4 9 11 11 9 10 8 10 12 7 6 3 3 3 3 3 3 3 3 3 2
11 9 12 17 19 14 12 9 5 5 5 5 6 6 5 2 5 4 6 8 7 9 7 9 13 9 6 6 5 2 2 4 2 3 3 2 3 3
14 4 3 3 5 6 5 5 5 5 5 5 5 5 5 5 5 2 5 6 7 8 7 2 2 4 4 4 2 3 2 0 3 3 3 2 2 3
6 3 4 5 6 6 6 6 5 8 6 5 5 5 5 4 7 6 4 6 7 6 7 4 2 2 1 2 5 2 2 3 3 4 3 5 5 3
2 4 5 5 6 6 6 5 6 6 6 4 5 5 5 4 9 6 6 6 5 4 5 5 4 4 3 4 3 11 3 2 3 2 3 5 5 3
3 5 6 6 6 6 6 5 5 5 5 5 5 5 4 3 4 6 5 6 5 6 7 6 5 4 5 4 3 3 10 4 3 2 2 1 2 6
7 6 6 7 7 7 6 6 6 5 6 4 4 5 5 4 6 5 6 12 13 6 7 5 7 14 3 4 1 2 3 12 6 4 3 3 2 1
6 6 6 6 6 7 7 6 6 8 7 6 6 5 5 5 7 5 4 6 6 6 7 5 3 3 2 3 3 3 2 3 3 13 11 9 4 3
7 7 7 7 6 6 7 6 6 7 7 6 6 6 6 5 6 6 5 5 7 8 4 2 1 0 1 3 5 3 3 2 2 1 3 12 14 16
Wind_Direction
252 248 238 265 250 247 229 189 178 294 294 303 304 332 277 315 288 278 277 280 292 297 300 306 300 298 302 300 291 292 295 293 303 301 296 296 310 295
258 268 262 255 261 249 238 228 206 205 242 221 257 268 287 306 296 297 277 271 277 285 287 287 293 283 291 292 290 277 271 273 270 280 287 275 273 343
300 284 283 276 275 268 251 238 235 194 231 274 251 263 274 280 290 287 278 273 266 275 279 287 284 275 276 281 280 269 262 268 258 262 274 295 307 327
330 330 311 324 302 287 268 260 241 230 215 256 279 281 249 265 269 285 279 271 269 276 283 286 282 270 274 272 271 269 255 254 243 237 236 253 269 278
347 337 316 327 311 303 290 273 261 264 229 231 261 270 274 274 285 273 274 269 263 268 277 282 281 269 261 269 269 262 243 234 233 236 257 273 279 285
337 331 316 312 304 305 298 280 278 266 266 260 255 254 269 295 263 281 292 272 286 280 275 274 274 265 260 259 263 255 236 229 231 238 246 252 250 255
321 312 306 308 309 310 316 314 307 287 279 283 280 279 277 285 295 299 284 287 284 253 276 273 264 265 254 261 259 248 237 238 233 233 244 242 234 242
295 302 298 301 299 305 308 312 311 310 306 300 286 277 282 276 276 284 288 297 301 260 263 276 189 260 253 230 243 246 241 239 234 228 231 233 229 223
277 276 287 286 301 290 297 298 294 296 294 290 292 291 293 292 286 285 281 277 273 275 256 281 247 264 241 247 242 239 238 228 224 222 219 227 223 211
262 265 264 272 275 291 292 278 274 269 272 272 254 262 270 281 277 285 287 278 280 275 230 274 253 261 261 235 246 242 235 224 209 211 217 223 217 207
282 279 269 263 272 288 298 292 285 281 283 287 290 286 286 288 283 299 293 299 297 295 243 268 265 265 242 251 234 239 239 216 208 217 218 216 207 199
279 268 284 284 273 289 295 280 287 285 276 283 281 286 285 275 275 255 260 270 281 293 278 244 270 223 278 233 248 222 229 217 207 211 218 213 194 136
298 298 283 299 304 298 301 281 260 292 297 286 274 274 269 264 264 255 244 243 265 268 277 276 261 271 257 271 289 220 178 196 174 206 216 185 169 156
297 286 280 293 297 300 299 294 299 304 294 286 288 284 283 280 274 260 252 248 240 253 273 267 277 221 259 260 212 263 153 149 152 159 132 171 196 195
287 286 297 302 300 297 290 297 303 290 283 284 281 276 264 266 278 279 284 276 262 259 264 257 257 249 227 229 249 195 141 173 151 141 153 160 169 153
282 284 291 295 302 299 304 299 283 271 256 261 271 273 277 273 274 264 281 284 277 284 264 267 261 228 226 226 211 216 177 161 129 154 148 153 169 186
314 300 269 273 285 285 283 272 274 274 277 273 273 274 281 284 283 272 264 280 264 281 293 277 265 316 239 161 199 168 147 88 141 141 127 172 225 203
319 290 286 278 274 279 277 279 270 280 272 273 272 267 271 278 298 293 263 276 273 267 278 284 251 274 248 255 209 128 127 174 165 181 176 208 227 203
275 277 276 278 280 279 274 274 280 273 269 262 273 271 270 263 304 298 282 275 269 262 269 299 278 243 222 246 293 208 177 165 151 171 189 209 242 217
264 273 280 279 279 283 281 275 276 279 275 275 272 268 263 251 285 289 285 280 279 285 281 253 244 229 223 216 203 267 186 141 146 168 176 215 250 262
299 286 281 285 279 283 271 269 265 265 269 248 266 261 266 263 267 257 275 300 300 293 275 266 239 237 165 124 137 331 311 215 165 155 167 182 179 225
287 283 283 277 276 277 276 272 274 281 277 272 264 250 255 257 263 245 249 281 280 283 284 271 300 154 138 170 217 188 268 317 274 224 209 208 165 211
293 293 288 279 277 280 277 270 267 274 268 266 265 261 255 255 255 255 250 258 275 285 285 282 294 13 170 160 193 180 192 234 198 234 272 250 256 252